^^
Your Local Weather - Clay, NY Station Historical Data
Daily Summary for May 22, 2017 Units:  English    Metric   Both
« Previous Day
Next Day »
Daily Weekly Monthly Yearly Custom
  High: Low: Average:
Temperature: 69.1 °F 47.9 °F 56.6 °F
Dew Point: 60.3 °F 42.7 °F 51 °F
Humidity: 92% 61% 82%
Wind Speed: 5.0mph 0.0mph 1.5mph
Wind Gust: 9.0mph - -
Wind- - SSE
Pressure: 30.00 in 29.84 in -
Precipitation: 0.22 in    
Historical Graphs
 
 
Tabular Data for May 22, 2017
Time Temperature Dew Point Pressure Wind Wind Speed Wind Gust Humidity Rainfall Rate (Hourly) solar
00:00 53.6 °F 50.7 °F 30.00 in ESE 1.0 mph 1.0 mph 90% 0.00 in 0 W/m2
00:06 53.5 °F 50.6 °F 30.00 in East 1.0 mph 1.0 mph 90% 0.00 in 0 W/m2
00:12 53.5 °F 50.6 °F 30.00 in ENE 1.0 mph 1.0 mph 90% 0.00 in 0 W/m2
00:18 53.5 °F 50.6 °F 30.00 in ENE 1.0 mph 1.0 mph 90% 0.00 in 0 W/m2
00:24 53.5 °F 50.6 °F 30.00 in ENE 1.0 mph 2.0 mph 90% 0.00 in 0 W/m2
00:30 53.5 °F 50.6 °F 30.00 in ENE 1.0 mph 4.0 mph 90% 0.00 in 0 W/m2
00:36 53.6 °F 50.7 °F 29.99 in ENE 1.0 mph 4.0 mph 90% 0.00 in 0 W/m2
00:42 53.7 °F 50.8 °F 29.99 in ENE 1.0 mph 2.0 mph 90% 0.00 in 0 W/m2
00:48 53.7 °F 51.1 °F 29.99 in ENE 1.0 mph 2.0 mph 91% 0.00 in 0 W/m2
00:54 53.8 °F 51.2 °F 29.99 in ENE 1.0 mph 1.0 mph 91% 0.00 in 0 W/m2
01:00 53.8 °F 51.2 °F 29.98 in ENE 1.0 mph 1.0 mph 91% 0.00 in 0 W/m2
01:06 53.8 °F 51.2 °F 29.99 in Calm   1.0 mph 91% 0.00 in 0 W/m2
01:12 53.9 °F 51.3 °F 29.98 in Calm   2.0 mph 91% 0.00 in 0 W/m2
01:18 53.9 °F 51.3 °F 29.98 in ENE 1.0 mph 2.0 mph 91% 0.00 in 0 W/m2
01:24 53.9 °F 51.3 °F 29.98 in ENE 1.0 mph 1.0 mph 91% 0.00 in 0 W/m2
01:30 53.9 °F 51.3 °F 29.98 in Calm     91% 0.00 in 0 W/m2
01:36 53.9 °F 51.3 °F 29.98 in Calm     91% 0.00 in 0 W/m2
01:42 53.9 °F 51.3 °F 29.98 in Calm     91% 0.00 in 0 W/m2
01:48 53.8 °F 51.2 °F 29.98 in Calm   2.0 mph 91% 0.00 in 0 W/m2
01:54 53.8 °F 51.2 °F 29.98 in Calm     91% 0.00 in 0 W/m2
02:00 53.8 °F 51.5 °F 29.98 in Calm     92% 0.00 in 0 W/m2
02:06 53.8 °F 51.5 °F 29.98 in Calm     92% 0.00 in 0 W/m2
02:12 53.7 °F 51.4 °F 29.97 in SW 1.0 mph 3.0 mph 92% 0.00 in 0 W/m2
02:18 53.7 °F 51.1 °F 29.97 in SE 1.0 mph 3.0 mph 91% 0.00 in 0 W/m2
02:24 53.7 °F 51.1 °F 29.97 in Calm   7.0 mph 91% 0.00 in 0 W/m2
02:30 53.9 °F 51.0 °F 29.97 in SSE 1.0 mph 1.0 mph 90% 0.00 in 0 W/m2
02:36 54.1 °F 50.9 °F 29.97 in ESE 1.0 mph 2.0 mph 89% 0.00 in 0 W/m2
02:42 54.1 °F 50.9 °F 29.97 in Calm   1.0 mph 89% 0.00 in 0 W/m2
02:48 54.3 °F 50.5 °F 29.97 in SE 2.0 mph 4.0 mph 87% 0.00 in 0 W/m2
02:54 54.4 °F 50.0 °F 29.97 in SE 3.0 mph 3.0 mph 85% 0.00 in 0 W/m2
03:00 54.4 °F 49.7 °F 29.97 in SE 1.0 mph 1.0 mph 84% 0.00 in 0 W/m2
03:06 54.2 °F 50.1 °F 29.97 in Calm   1.0 mph 86% 0.00 in 0 W/m2
03:12 54.0 °F 49.9 °F 29.97 in Calm     86% 0.00 in 0 W/m2
03:18 54.0 °F 50.2 °F 29.97 in Calm     87% 0.00 in 0 W/m2
03:24 54.0 °F 49.9 °F 29.97 in Calm   1.0 mph 86% 0.00 in 0 W/m2
03:30 54.1 °F 50.3 °F 29.97 in Calm     87% 0.26 in 0 W/m2
03:36 53.8 °F 50.0 °F 29.98 in Calm     87% 0.23 in 0 W/m2
03:42 53.6 °F 50.1 °F 29.98 in Calm     88% 0.12 in 0 W/m2
03:48 53.3 °F 49.8 °F 29.97 in SE 1.0 mph 3.0 mph 88% 0.11 in 0 W/m2
03:54 53.2 °F 50.0 °F 29.97 in SE 1.0 mph 1.0 mph 89% 0.08 in 0 W/m2
04:00 53.0 °F 49.8 °F 29.97 in SE 1.0 mph 2.0 mph 89% 0.08 in 0 W/m2
04:06 52.9 °F 49.7 °F 29.97 in SE 1.0 mph 2.0 mph 89% 0.04 in 0 W/m2
04:12 52.8 °F 49.9 °F 29.97 in Calm   1.0 mph 90% 0.00 in 0 W/m2
04:18 52.7 °F 49.8 °F 29.97 in SE 1.0 mph 2.0 mph 90% 0.00 in 0 W/m2
04:24 52.6 °F 49.8 °F 29.96 in SE 1.0 mph 3.0 mph 90% 0.00 in 0 W/m2
04:30 52.6 °F 49.8 °F 29.96 in SSE 2.0 mph 3.0 mph 90% 0.00 in 0 W/m2
04:36 52.8 °F 49.9 °F 29.95 in SE 2.0 mph 3.0 mph 90% 0.00 in 0 W/m2
04:42 52.8 °F 49.9 °F 29.95 in SE 2.0 mph 3.0 mph 90% 0.00 in 0 W/m2
04:48 52.8 °F 49.9 °F 29.95 in East 1.0 mph 3.0 mph 90% 0.00 in 0 W/m2
04:54 52.8 °F 49.9 °F 29.95 in East 1.0 mph 2.0 mph 90% 0.00 in 0 W/m2
05:00 52.8 °F 49.9 °F 29.95 in SSE 1.0 mph 1.0 mph 90% 0.00 in 0 W/m2
05:06 52.8 °F 49.9 °F 29.95 in SSE 1.0 mph 3.0 mph 90% 0.00 in 0 W/m2
05:12 52.8 °F 49.9 °F 29.95 in ESE 1.0 mph 2.0 mph 90% 0.00 in 0 W/m2
05:18 52.8 °F 49.9 °F 29.95 in East 1.0 mph 2.0 mph 90% 0.00 in 0 W/m2
05:24 52.8 °F 50.2 °F 29.95 in East 1.0 mph 3.0 mph 91% 0.00 in 0 W/m2
05:30 52.7 °F 50.1 °F 29.95 in East 1.0 mph 1.0 mph 91% 0.00 in 0 W/m2
05:36 52.7 °F 50.1 °F 29.95 in East 1.0 mph 2.0 mph 91% 0.00 in 0 W/m2
05:42 52.6 °F 50.0 °F 29.95 in ENE 1.0 mph 2.0 mph 91% 0.00 in 0 W/m2
05:48 52.7 °F 50.1 °F 29.94 in ENE 1.0 mph 2.0 mph 91% 0.00 in 0 W/m2
05:54 52.7 °F 50.1 °F 29.94 in ENE 1.0 mph 2.0 mph 91% 0.00 in 7 W/m2
06:00 52.6 °F 50.0 °F 29.94 in ENE 1.0 mph 1.0 mph 91% 0.00 in 11 W/m2
06:06 52.6 °F 50.0 °F 29.94 in ENE 1.0 mph 2.0 mph 91% 0.00 in 23 W/m2
06:12 52.6 °F 50.0 °F 29.94 in Calm   1.0 mph 91% 0.00 in 25 W/m2
06:18 52.7 °F 50.4 °F 29.94 in ENE 1.0 mph 2.0 mph 92% 0.00 in 12 W/m2
06:24 52.7 °F 50.4 °F 29.94 in ENE 1.0 mph 2.0 mph 92% 0.00 in 23 W/m2
06:30 52.7 °F 50.4 °F 29.94 in ENE 1.0 mph 1.0 mph 92% 0.00 in 30 W/m2
06:36 52.7 °F 50.4 °F 29.94 in ENE 1.0 mph 3.0 mph 92% 0.00 in 25 W/m2
06:42 52.8 °F 50.5 °F 29.94 in ENE 1.0 mph 2.0 mph 92% 0.00 in 30 W/m2
06:48 52.8 °F 50.2 °F 29.94 in ENE 1.0 mph 2.0 mph 91% 0.00 in 44 W/m2
06:54 52.9 °F 50.3 °F 29.94 in ENE 1.0 mph 2.0 mph 91% 0.00 in 37 W/m2
07:00 52.9 °F 50.3 °F 29.94 in ENE 1.0 mph 1.0 mph 91% 0.00 in 19 W/m2
07:06 52.9 °F 50.3 °F 29.95 in ENE 1.0 mph 4.0 mph 91% 0.00 in 18 W/m2
07:12 53.0 °F 50.4 °F 29.95 in ENE 1.0 mph 1.0 mph 91% 0.00 in 11 W/m2
07:18 53.0 °F 50.4 °F 29.94 in ENE 1.0 mph 2.0 mph 91% 0.00 in 16 W/m2
07:24 52.9 °F 50.3 °F 29.94 in East 1.0 mph 2.0 mph 91% 0.00 in 40 W/m2
07:30 53.2 °F 50.6 °F 29.94 in East 1.0 mph 1.0 mph 91% 0.00 in 49 W/m2
07:36 53.2 °F 50.6 °F 29.94 in ENE 1.0 mph 3.0 mph 91% 0.00 in 37 W/m2
07:42 53.4 °F 50.8 °F 29.95 in East 1.0 mph 3.0 mph 91% 0.00 in 49 W/m2
07:48 53.6 °F 51.0 °F 29.95 in ENE 1.0 mph 3.0 mph 91% 0.00 in 53 W/m2
08:00 53.7 °F 51.1 °F 29.95 in Calm     91% 0.00 in 28 W/m2
08:06 53.7 °F 51.1 °F 29.95 in ENE 1.0 mph 3.0 mph 91% 0.00 in 49 W/m2
08:12 53.8 °F 51.2 °F 29.95 in ENE 1.0 mph 2.0 mph 91% 0.00 in 44 W/m2
08:18 53.7 °F 51.1 °F 29.95 in ENE 2.0 mph 3.0 mph 91% 0.00 in 49 W/m2
08:24 53.8 °F 51.2 °F 29.95 in ENE 2.0 mph 2.0 mph 91% 0.00 in 53 W/m2
08:30 53.8 °F 51.2 °F 29.95 in East 1.0 mph 1.0 mph 91% 0.00 in 62 W/m2
08:36 53.8 °F 51.2 °F 29.95 in ENE 2.0 mph 2.0 mph 91% 0.00 in 60 W/m2
08:42 53.9 °F 51.0 °F 29.95 in ENE 2.0 mph 2.0 mph 90% 0.00 in 74 W/m2
08:48 54.0 °F 51.1 °F 29.95 in ENE 1.0 mph 3.0 mph 90% 0.00 in 58 W/m2
08:54 54.2 °F 51.3 °F 29.94 in ENE 2.0 mph 4.0 mph 90% 0.00 in 67 W/m2
09:00 54.1 °F 51.2 °F 29.94 in ENE 2.0 mph 2.0 mph 90% 0.00 in 58 W/m2
09:06 54.3 °F 51.7 °F 29.94 in ENE 2.0 mph 2.0 mph 91% 0.00 in 84 W/m2
09:12 54.4 °F 51.5 °F 29.94 in ENE 1.0 mph 2.0 mph 90% 0.00 in 63 W/m2
09:18 54.6 °F 51.7 °F 29.94 in ENE 1.0 mph 3.0 mph 90% 0.00 in 72 W/m2
09:24 54.7 °F 51.8 °F 29.94 in ENE 2.0 mph 2.0 mph 90% 0.00 in 135 W/m2
09:30 55.2 °F 52.3 °F 29.94 in ENE 2.0 mph 2.0 mph 90% 0.00 in 179 W/m2
09:36 55.6 °F 52.7 °F 29.93 in South 1.0 mph 2.0 mph 90% 0.00 in 272 W/m2
09:42 56.3 °F 53.4 °F 29.92 in NE 2.0 mph 2.0 mph 90% 0.00 in 274 W/m2
09:48 56.8 °F 53.6 °F 29.92 in NE 2.0 mph 3.0 mph 89% 0.00 in 330 W/m2
09:54 57.2 °F 53.7 °F 29.92 in SSE 2.0 mph 4.0 mph 88% 0.00 in 265 W/m2
10:00 57.3 °F 53.1 °F 29.92 in SE 2.0 mph 3.0 mph 86% 0.00 in 200 W/m2
10:06 57.5 °F 53.3 °F 29.92 in SE 2.0 mph 3.0 mph 86% 0.00 in 156 W/m2
10:12 57.7 °F 53.5 °F 29.92 in SE 1.0 mph 2.0 mph 86% 0.00 in 223 W/m2
10:18 58.1 °F 53.9 °F 29.92 in ENE 1.0 mph 2.0 mph 86% 0.00 in 301 W/m2
10:24 58.6 °F 54.1 °F 29.92 in East 1.0 mph 2.0 mph 85% 0.00 in 436 W/m2
10:26 58.6 °F 53.8 °F 29.91 in East 2.0 mph 5.0 mph 84% 0.00 in 555 W/m2
10:32 58.5 °F 53.4 °F 29.91 in ENE 3.0 mph 5.0 mph 83% 0.00 in 241 W/m2
10:40 58.9 °F 54.4 °F 29.91 in SE 3.0 mph 3.0 mph 85% 0.00 in 171 W/m2
10:46 58.8 °F 54.0 °F 29.90 in East 2.0 mph 6.0 mph 84% 0.00 in 114 W/m2
10:52 58.8 °F 54.3 °F 29.90 in SE 2.0 mph 2.0 mph 85% 0.00 in 79 W/m2
10:58 58.8 °F 54.3 °F 29.90 in ENE 2.0 mph 3.0 mph 85% 0.00 in 67 W/m2
11:04 58.8 °F 54.6 °F 29.91 in ENE 1.0 mph 2.0 mph 86% 0.00 in 67 W/m2
11:10 58.8 °F 54.6 °F 29.90 in ENE 1.0 mph 1.0 mph 86% 0.00 in 91 W/m2
11:16 58.8 °F 54.9 °F 29.91 in Calm   1.0 mph 87% 0.16 in 86 W/m2
11:22 58.6 °F 55.1 °F 29.90 in ENE 1.0 mph 1.0 mph 88% 0.08 in 70 W/m2
11:28 58.6 °F 55.4 °F 29.90 in ENE 1.0 mph 1.0 mph 89% 0.07 in 88 W/m2
11:34 58.6 °F 55.4 °F 29.90 in Calm     89% 0.17 in 109 W/m2
11:40 58.5 °F 55.6 °F 29.91 in Calm   1.0 mph 90% 0.22 in 76 W/m2
11:46 58.4 °F 55.5 °F 29.91 in Calm   2.0 mph 90% 0.07 in 70 W/m2
11:52 57.9 °F 55.0 °F 29.90 in ENE 1.0 mph 2.0 mph 90% 0.04 in 88 W/m2
11:58 57.5 °F 54.6 °F 29.90 in ENE 2.0 mph 2.0 mph 90% 0.04 in 211 W/m2
12:04 57.4 °F 54.5 °F 29.90 in ENE 2.0 mph 2.0 mph 90% 0.04 in 120 W/m2
12:10 57.3 °F 54.7 °F 29.91 in ENE 1.0 mph 2.0 mph 91% 0.04 in 139 W/m2
12:16 57.3 °F 54.7 °F 29.91 in ENE 1.0 mph 2.0 mph 91% 0.00 in 114 W/m2
12:22 57.5 °F 54.9 °F 29.91 in ENE 1.0 mph 3.0 mph 91% 0.00 in 127 W/m2
12:28 57.9 °F 55.3 °F 29.91 in ENE 1.0 mph 3.0 mph 91% 0.00 in 123 W/m2
12:34 58.4 °F 56.1 °F 29.90 in SE 1.0 mph 3.0 mph 92% 0.00 in 130 W/m2
12:40 58.7 °F 56.4 °F 29.90 in South 2.0 mph 2.0 mph 92% 0.00 in 105 W/m2
12:46 58.9 °F 56.6 °F 29.90 in SSE 2.0 mph 3.0 mph 92% 0.00 in 130 W/m2
12:52 59.2 °F 56.9 °F 29.90 in SSE 1.0 mph 5.0 mph 92% 0.00 in 98 W/m2
12:58 59.0 °F 56.4 °F 29.90 in SSE 3.0 mph 5.0 mph 91% 0.00 in 137 W/m2
13:04 59.2 °F 56.6 °F 29.89 in SSE 3.0 mph 5.0 mph 91% 0.00 in 188 W/m2
13:10 59.3 °F 56.7 °F 29.89 in SSE 3.0 mph 6.0 mph 91% 0.00 in 258 W/m2
13:16 59.6 °F 57.0 °F 29.89 in SSE 3.0 mph 6.0 mph 91% 0.00 in 174 W/m2
13:22 59.6 °F 56.7 °F 29.89 in SSE 3.0 mph 4.0 mph 90% 0.00 in 188 W/m2
13:28 59.7 °F 56.5 °F 29.89 in SSE 3.0 mph 5.0 mph 89% 0.00 in 236 W/m2
13:34 60.1 °F 56.8 °F 29.89 in SE 3.0 mph 3.0 mph 89% 0.00 in 250 W/m2
13:40 60.6 °F 57.3 °F 29.89 in SSE 2.0 mph 2.0 mph 89% 0.00 in 341 W/m2
13:46 61.3 °F 57.7 °F 29.89 in SSE 2.0 mph 3.0 mph 88% 0.00 in 374 W/m2
13:52 62.0 °F 58.4 °F 29.89 in SSE 3.0 mph 3.0 mph 88% 0.00 in 613 W/m2
13:58 62.5 °F 57.9 °F 29.89 in SSE 2.0 mph 4.0 mph 85% 0.00 in 367 W/m2
14:04 62.9 °F 58.6 °F 29.88 in SE 3.0 mph 3.0 mph 86% 0.00 in 605 W/m2
14:10 63.2 °F 58.3 °F 29.87 in SE 3.0 mph 3.0 mph 84% 0.00 in 359 W/m2
14:16 63.4 °F 58.5 °F 29.87 in SSE 3.0 mph 3.0 mph 84% 0.00 in 276 W/m2
14:22 63.9 °F 58.3 °F 29.87 in SE 3.0 mph 4.0 mph 82% 0.00 in 343 W/m2
14:28 64.3 °F 58.7 °F 29.87 in SSW 3.0 mph 4.0 mph 82% 0.00 in 267 W/m2
14:34 64.6 °F 58.6 °F 29.87 in SSW 2.0 mph 3.0 mph 81% 0.00 in 279 W/m2
14:40 64.9 °F 58.6 °F 29.86 in SSE 2.0 mph 4.0 mph 80% 0.00 in 436 W/m2
14:46 65.8 °F 59.1 °F 29.85 in ESE 3.0 mph 4.0 mph 79% 0.00 in 394 W/m2
14:52 66.3 °F 59.2 °F 29.86 in SSE 4.0 mph 6.0 mph 78% 0.00 in 318 W/m2
14:58 66.3 °F 58.9 °F 29.86 in SE 5.0 mph 6.0 mph 77% 0.00 in 403 W/m2
15:02 67.2 °F 59.4 °F 29.86 in SW 5.0 mph 5.0 mph 76% 0.00 in 403 W/m2
15:08 68.2 °F 60.3 °F 29.85 in SW 4.0 mph 5.0 mph 76% 0.00 in 580 W/m2
15:14 68.1 °F 58.7 °F 29.85 in South 3.0 mph 4.0 mph 72% 0.00 in 269 W/m2
15:20 67.4 °F 58.1 °F 29.85 in South 3.0 mph 3.0 mph 72% 0.00 in 260 W/m2
15:26 67.4 °F 58.4 °F 29.84 in SW 3.0 mph 4.0 mph 73% 0.00 in 345 W/m2
15:32 69.1 °F 60.1 °F 29.84 in West 2.0 mph 4.0 mph 73% 0.00 in 338 W/m2
15:38 68.8 °F 59.0 °F 29.84 in SSE 3.0 mph 4.0 mph 71% 0.00 in 206 W/m2
15:44 68.3 °F 58.5 °F 29.84 in SSW 3.0 mph 3.0 mph 71% 0.00 in 123 W/m2
15:50 66.6 °F 55.7 °F 29.86 in NNW 3.0 mph 3.0 mph 68% 0.00 in 26 W/m2
15:56 64.8 °F 55.2 °F 29.85 in WNW 3.0 mph 5.0 mph 71% 0.00 in 74 W/m2
16:02 63.7 °F 55.6 °F 29.86 in NW 3.0 mph 4.0 mph 75% 0.00 in 197 W/m2
16:08 63.5 °F 56.2 °F 29.86 in NNW 3.0 mph 4.0 mph 77% 0.00 in 121 W/m2
16:14 62.8 °F 56.2 °F 29.86 in North 5.0 mph 7.0 mph 79% 0.00 in 141 W/m2
16:20 62.4 °F 56.5 °F 29.86 in North 5.0 mph 5.0 mph 81% 0.00 in 123 W/m2
16:26 62.5 °F 56.2 °F 29.86 in NNW 4.0 mph 5.0 mph 80% 0.00 in 299 W/m2
16:32 62.8 °F 56.5 °F 29.86 in NNW 3.0 mph 5.0 mph 80% 0.00 in 104 W/m2
16:38 62.9 °F 56.3 °F 29.87 in NNW 3.0 mph 5.0 mph 79% 0.00 in 93 W/m2
16:44 62.9 °F 55.9 °F 29.87 in NNW 3.0 mph 4.0 mph 78% 0.00 in 190 W/m2
16:50 63.3 °F 54.9 °F 29.87 in NNW 3.0 mph 5.0 mph 74% 0.00 in 255 W/m2
16:56 63.7 °F 54.5 °F 29.87 in NW 3.0 mph 5.0 mph 72% 0.00 in 311 W/m2
17:02 63.5 °F 52.7 °F 29.87 in NNW 3.0 mph 5.0 mph 68% 0.00 in 316 W/m2
17:08 62.8 °F 51.7 °F 29.88 in WNW 5.0 mph 9.0 mph 67% 0.00 in 160 W/m2
17:16 61.5 °F 50.4 °F 29.88 in NNW 5.0 mph 7.0 mph 67% 0.00 in 209 W/m2
17:22 61.2 °F 50.2 °F 29.88 in NW 5.0 mph 6.0 mph 67% 0.00 in 278 W/m2
17:28 61.4 °F 51.1 °F 29.88 in NNW 3.0 mph 6.0 mph 69% 0.00 in 250 W/m2
17:34 61.5 °F 50.8 °F 29.89 in NW 2.0 mph 4.0 mph 68% 0.00 in 149 W/m2
17:40 61.3 °F 50.2 °F 29.89 in NNW 2.0 mph 2.0 mph 67% 0.00 in 153 W/m2
17:46 60.8 °F 50.2 °F 29.89 in NW 3.0 mph 5.0 mph 68% 0.00 in 172 W/m2
17:52 60.0 °F 48.6 °F 29.89 in WNW 4.0 mph 6.0 mph 66% 0.00 in 151 W/m2
17:58 59.8 °F 48.8 °F 29.89 in NW 3.0 mph 6.0 mph 67% 0.00 in 192 W/m2
18:04 59.9 °F 49.3 °F 29.89 in NW 1.0 mph 3.0 mph 68% 0.00 in 190 W/m2
18:10 59.9 °F 48.1 °F 29.89 in NW 2.0 mph 4.0 mph 65% 0.00 in 179 W/m2
18:16 59.6 °F 47.8 °F 29.89 in NW 3.0 mph 4.0 mph 65% 0.00 in 153 W/m2
18:22 59.5 °F 48.1 °F 29.89 in NW 3.0 mph 3.0 mph 66% 0.00 in 183 W/m2
18:29 59.4 °F 47.6 °F 29.90 in NNW 3.0 mph 3.0 mph 65% 0.00 in 160 W/m2
18:34 59.3 °F 47.1 °F 29.90 in WNW 3.0 mph 5.0 mph 64% 0.00 in 137 W/m2
18:40 59.1 °F 46.9 °F 29.90 in NW 3.0 mph 3.0 mph 64% 0.00 in 93 W/m2
18:46 58.9 °F 47.2 °F 29.91 in NW 3.0 mph 3.0 mph 65% 0.00 in 81 W/m2
18:52 58.7 °F 47.4 °F 29.91 in WNW 2.0 mph 2.0 mph 66% 0.00 in 62 W/m2
18:58 58.7 °F 47.0 °F 29.91 in NW 2.0 mph 2.0 mph 65% 0.00 in 76 W/m2
19:04 58.6 °F 47.7 °F 29.91 in NW 1.0 mph 3.0 mph 67% 0.00 in 79 W/m2
19:10 58.6 °F 47.3 °F 29.92 in NNW 2.0 mph 2.0 mph 66% 0.00 in 88 W/m2
19:16 58.7 °F 46.5 °F 29.92 in WNW 1.0 mph 3.0 mph 64% 0.00 in 88 W/m2
19:22 58.9 °F 45.9 °F 29.92 in WNW 2.0 mph 4.0 mph 62% 0.00 in 69 W/m2
19:28 59.1 °F 46.9 °F 29.92 in WNW 2.0 mph 4.0 mph 64% 0.00 in 76 W/m2
19:34 59.3 °F 46.7 °F 29.93 in NNW 1.0 mph 4.0 mph 63% 0.00 in 77 W/m2
19:40 59.3 °F 45.8 °F 29.93 in NW 2.0 mph 2.0 mph 61% 0.00 in 90 W/m2
19:46 59.2 °F 45.8 °F 29.93 in NW 2.0 mph 2.0 mph 61% 0.00 in 47 W/m2
19:52 58.7 °F 45.3 °F 29.93 in NNW 2.0 mph 4.0 mph 61% 0.00 in 39 W/m2
19:58 58.1 °F 45.1 °F 29.94 in WNW 2.0 mph 4.0 mph 62% 0.00 in 32 W/m2
20:04 57.7 °F 45.6 °F 29.94 in WNW 1.0 mph 2.0 mph 64% 0.00 in 21 W/m2
20:10 57.1 °F 45.0 °F 29.94 in WNW 1.0 mph 2.0 mph 64% 0.00 in 16 W/m2
20:16 56.7 °F 45.1 °F 29.94 in WNW 1.0 mph 2.0 mph 65% 0.00 in 12 W/m2
20:22 56.4 °F 44.8 °F 29.94 in Calm   1.0 mph 65% 0.00 in 9 W/m2
20:28 56.0 °F 44.4 °F 29.94 in Calm   2.0 mph 65% 0.00 in 7 W/m2
20:34 55.8 °F 44.6 °F 29.94 in Calm     66% 0.00 in 7 W/m2
20:40 55.5 °F 44.7 °F 29.94 in Calm     67% 0.00 in 0 W/m2
20:46 55.2 °F 44.8 °F 29.94 in Calm   1.0 mph 68% 0.00 in 0 W/m2
20:52 54.9 °F 44.5 °F 29.95 in Calm     68% 0.00 in 0 W/m2
20:58 54.6 °F 44.2 °F 29.95 in Calm     68% 0.00 in 0 W/m2
21:04 54.5 °F 44.2 °F 29.95 in Calm     68% 0.00 in 0 W/m2
21:10 54.4 °F 44.1 °F 29.95 in Calm     68% 0.00 in 0 W/m2
21:16 54.2 °F 43.9 °F 29.95 in Calm     68% 0.00 in 0 W/m2
21:22 53.8 °F 44.6 °F 29.95 in Calm     71% 0.00 in 0 W/m2
21:28 53.2 °F 45.8 °F 29.95 in Calm     76% 0.00 in 0 W/m2
21:34 52.7 °F 45.7 °F 29.95 in Calm     77% 0.00 in 0 W/m2
21:40 52.2 °F 45.5 °F 29.95 in Calm     78% 0.00 in 0 W/m2
21:46 51.8 °F 45.5 °F 29.95 in Calm     79% 0.00 in 0 W/m2
21:52 51.4 °F 45.1 °F 29.95 in Calm     79% 0.00 in 0 W/m2
21:58 51.1 °F 44.8 °F 29.96 in Calm     79% 0.00 in 0 W/m2
22:04 51.2 °F 44.2 °F 29.96 in Calm   2.0 mph 77% 0.00 in 0 W/m2
22:10 52.1 °F 44.1 °F 29.96 in West 1.0 mph 3.0 mph 74% 0.00 in 0 W/m2
22:16 52.9 °F 43.7 °F 29.96 in WSW 1.0 mph 3.0 mph 71% 0.00 in 0 W/m2
22:22 53.4 °F 43.5 °F 29.96 in WSW 1.0 mph 1.0 mph 69% 0.00 in 0 W/m2
22:28 53.5 °F 43.2 °F 29.97 in WSW 1.0 mph 2.0 mph 68% 0.00 in 0 W/m2
22:34 53.4 °F 43.1 °F 29.97 in Calm   1.0 mph 68% 0.00 in 0 W/m2
22:40 53.2 °F 42.9 °F 29.96 in Calm     68% 0.00 in 0 W/m2
22:46 52.8 °F 42.9 °F 29.96 in Calm     69% 0.00 in 0 W/m2
22:52 52.2 °F 42.7 °F 29.96 in Calm     70% 0.00 in 0 W/m2
22:58 51.7 °F 43.0 °F 29.96 in Calm     72% 0.00 in 0 W/m2
23:04 51.3 °F 42.9 °F 29.97 in Calm     73% 0.00 in 0 W/m2
23:12 50.8 °F 43.5 °F 29.96 in Calm     76% 0.00 in 0 W/m2
23:18 50.2 °F 43.9 °F 29.96 in Calm     79% 0.00 in 0 W/m2
23:24 49.8 °F 44.2 °F 29.97 in Calm     81% 0.00 in 0 W/m2
23:30 49.4 °F 43.8 °F 29.97 in Calm     81% 0.00 in 0 W/m2
23:36 49.0 °F 43.7 °F 29.97 in Calm     82% 0.00 in 0 W/m2
23:42 48.6 °F 43.4 °F 29.97 in Calm     82% 0.00 in 0 W/m2
23:48 48.2 °F 43.3 °F 29.96 in Calm     83% 0.00 in 0 W/m2
23:54 47.9 °F 43.0 °F 29.97 in Calm     83% 0.00 in 0 W/m2
Country Meadow, Clay, NY, USA
Compliments of Weather Underground - 2 mb